TimeEDT,TemperatureF,Dew PointF,Humidity,Sea Level PressureIn,VisibilityMPH,Wind Direction,Wind SpeedMPH,Gust SpeedMPH,PrecipitationIn,Events,Conditions,WindDirDegrees,DateUTC
12:00 AM,73.6,68.0,83,30.13,-9999.0,North,-9999.0,-,N/A,,Unknown,0,2013-07-04 04:00:00
1:00 AM,73.2,68.7,86,30.15,-9999.0,North,-9999.0,-,N/A,,Unknown,0,2013-07-04 05:00:00
2:00 AM,70,68,91,30.12,,Calm,Calm,,,,,,2013-07-04 06:00:00
2:00 AM,70.3,68.0,92,30.12,-9999.0,North,-9999.0,-,0.23,,Unknown,0,2013-07-04 06:00:00
3:00 AM,69.4,67.5,93,30.11,-9999.0,North,-9999.0,-,N/A,,Unknown,0,2013-07-04 07:00:00
4:00 AM,69.1,67.3,94,30.11,-9999.0,North,-9999.0,-,N/A,,Unknown,0,2013-07-04 08:00:00
5:00 AM,68.7,66.7,93,30.12,-9999.0,North,-9999.0,-,N/A,,Unknown,0,2013-07-04 09:00:00
6:00 AM,68.9,66.6,92,30.12,-9999.0,North,-9999.0,-,N/A,,Unknown,0,2013-07-04 10:00:00
7:00 AM,69.3,67.1,93,30.14,-9999.0,North,-9999.0,-,N/A,,Unknown,0,2013-07-04 11:00:00
8:00 AM,70,68,90,30.15,,Calm,Calm,,,,,,2013-07-04 12:00:00
8:00 AM,70.2,67.6,92,30.15,-9999.0,North,-9999.0,-,N/A,,Unknown,0,2013-07-04 12:00:00
9:00 AM,71.2,68.5,91,30.16,-9999.0,North,-9999.0,-,0.02,,Unknown,0,2013-07-04 13:00:00
10:00 AM,72.3,68.5,88,30.17,-9999.0,North,-9999.0,-,N/A,,Unknown,0,2013-07-04 14:00:00
11:00 AM,72.9,69.1,88,30.15,-9999.0,North,-9999.0,-,N/A,,Unknown,0,2013-07-04 15:00:00
12:00 PM,73.2,68.9,86,30.15,-9999.0,North,-9999.0,-,N/A,,Unknown,0,2013-07-04 16:00:00
1:00 PM,75.9,70.0,82,30.16,-9999.0,North,-9999.0,-,N/A,,Unknown,0,2013-07-04 17:00:00
2:00 PM,77,71,76,30.14,,Calm,Calm,,,,,,2013-07-04 18:00:00
2:00 PM,77.0,70.9,81,30.14,-9999.0,North,-9999.0,-,N/A,,Unknown,0,2013-07-04 18:00:00
3:00 PM,77.7,68.7,74,30.13,-9999.0,North,-9999.0,-,N/A,,Unknown,0,2013-07-04 19:00:00
4:00 PM,79.9,68.9,69,30.12,-9999.0,North,-9999.0,-,N/A,,Unknown,0,2013-07-04 20:00:00
5:00 PM,79.0,67.8,69,30.11,-9999.0,North,-9999.0,-,N/A,,Unknown,0,2013-07-04 21:00:00
6:00 PM,79.7,68.2,68,30.09,-9999.0,North,-9999.0,-,N/A,,Unknown,0,2013-07-04 22:00:00
7:00 PM,79.3,67.1,66,30.09,-9999.0,North,-9999.0,-,N/A,,Unknown,0,2013-07-04 23:00:00
8:00 PM,78,67,60,30.10,,Calm,Calm,,,,,,2013-07-05 00:00:00
8:00 PM,78.3,66.6,67,30.10,-9999.0,North,-9999.0,-,N/A,,Unknown,0,2013-07-05 00:00:00
9:00 PM,77.4,65.3,66,30.09,-9999.0,North,-9999.0,-,N/A,,Unknown,0,2013-07-05 01:00:00
10:00 PM,76.3,66.2,71,30.10,-9999.0,North,-9999.0,-,N/A,,Unknown,0,2013-07-05 02:00:00
11:00 PM,74.1,67.8,81,30.11,-9999.0,North,-9999.0,-,N/A,,Unknown,0,2013-07-05 03:00:00